LGL4EW EIDW-ELLX

Flight info

Callsign LGL4EW
Flight time 1h 45m
Altitude 23000
Route BOFUM Q37 MALUD L15 BIG UL9 DVR L9 KONAN UL607 REMBA
Aircraft DH8D/M-SFDRYGI/H

Departure

Time 2026-05-04 18:36
Airport Dublin Airport (EIDW)

Arrival

Time 2026-05-04 20:21
Airport Luxembourg-Findel International Airport (ELLX)
Time Latitude Longitude Altitude Speed Heading
2026-05-04 18:10 53.42770 -6.24739 252 ft 0 kts
2026-05-04 18:27 53.42764 -6.24739 252 ft 2 kts
2026-05-04 18:27 53.42749 -6.24742 252 ft 2 kts
2026-05-04 18:28 53.42734 -6.24743 252 ft 2 kts
2026-05-04 18:28 53.42724 -6.24745 252 ft 0 kts 349°
2026-05-04 18:28 53.42718 -6.24739 252 ft 1 kts 287°
2026-05-04 18:28 53.42719 -6.24726 252 ft 1 kts 236°
2026-05-04 18:29 53.42724 -6.24713 252 ft 1 kts 240°
2026-05-04 18:29 53.42725 -6.24712 252 ft 0 kts 240°
2026-05-04 18:31 53.42723 -6.24718 252 ft 3 kts 242°
2026-05-04 18:31 53.42688 -6.24816 252 ft 12 kts 234°
2026-05-04 18:31 53.42675 -6.24923 252 ft 11 kts 309°
2026-05-04 18:32 53.42756 -6.25021 252 ft 16 kts 327°
2026-05-04 18:32 53.42796 -6.25172 252 ft 13 kts 275°
2026-05-04 18:32 53.42857 -6.25287 252 ft 15 kts 337°
2026-05-04 18:32 53.42977 -6.25374 252 ft 22 kts 336°
2026-05-04 18:33 53.43129 -6.25484 252 ft 21 kts 336°
2026-05-04 18:33 53.43252 -6.25575 252 ft 18 kts 337°
2026-05-04 18:33 53.43362 -6.25649 252 ft 12 kts 354°
2026-05-04 18:33 53.43407 -6.25577 252 ft 12 kts 87°
2026-05-04 18:34 53.43397 -6.25375 252 ft 22 kts 95°
2026-05-04 18:34 53.43381 -6.25062 252 ft 28 kts 95°
2026-05-04 18:34 53.43366 -6.24784 252 ft 18 kts 96°
2026-05-04 18:34 53.43361 -6.24610 252 ft 13 kts 72°
2026-05-04 18:35 53.43437 -6.24553 252 ft 14 kts
2026-05-04 18:35 53.43516 -6.24561 252 ft 7 kts 317°
2026-05-04 18:35 53.43530 -6.24678 252 ft 18 kts 276°
2026-05-04 18:35 53.43568 -6.25363 252 ft 100 kts 275°
2026-05-04 18:36 53.43650 -6.26855 305 ft 147 kts 276°
2026-05-04 18:36 53.43738 -6.28580 748 ft 153 kts 276°
2026-05-04 18:36 53.44097 -6.30291 1199 ft 161 kts 305°
2026-05-04 18:36 53.44754 -6.31826 1734 ft 167 kts 306°
2026-05-04 18:37 53.45452 -6.33403 2298 ft 169 kts 310°
2026-05-04 18:37 53.46272 -6.34854 2788 ft 175 kts 329°
2026-05-04 18:37 53.47438 -6.35239 3298 ft 176 kts
2026-05-04 18:37 53.48675 -6.35138 3832 ft 182 kts
2026-05-04 18:38 53.49961 -6.35057 4250 ft 193 kts
2026-05-04 18:38 53.51355 -6.34843 4609 ft 208 kts 15°
2026-05-04 18:38 53.52471 -6.33356 5086 ft 217 kts 60°
2026-05-04 18:38 53.52732 -6.30862 5621 ft 223 kts 89°
2026-05-04 18:39 53.52668 -6.28243 6208 ft 226 kts 90°
2026-05-04 18:39 53.52604 -6.25589 6799 ft 228 kts 90°
2026-05-04 18:39 53.52542 -6.22943 7360 ft 231 kts 90°
2026-05-04 18:39 53.52488 -6.20200 7881 ft 236 kts 89°
2026-05-04 18:40 53.52509 -6.17446 8409 ft 240 kts 86°
2026-05-04 18:40 53.52561 -6.14629 8960 ft 243 kts 86°
2026-05-04 18:40 53.52615 -6.11784 9543 ft 244 kts 86°
2026-05-04 18:40 53.52669 -6.08963 10200 ft 241 kts 86°
2026-05-04 18:41 53.52723 -6.06158 10841 ft 240 kts 86°
2026-05-04 18:41 53.52777 -6.03374 11470 ft 239 kts 87°
2026-05-04 18:41 53.52830 -6.00595 12018 ft 242 kts 87°
2026-05-04 18:41 53.52884 -5.97774 12564 ft 244 kts 87°
2026-05-04 18:42 53.52940 -5.94892 13124 ft 245 kts 87°
2026-05-04 18:42 53.52994 -5.92044 13673 ft 246 kts 86°
2026-05-04 18:42 53.53047 -5.89180 14218 ft 246 kts 86°
2026-05-04 18:42 53.53101 -5.86298 14717 ft 248 kts 86°
2026-05-04 18:43 53.53155 -5.83373 15166 ft 251 kts 86°
2026-05-04 18:43 53.53208 -5.80458 15621 ft 253 kts 86°
2026-05-04 18:43 53.53261 -5.77491 16086 ft 254 kts 86°
2026-05-04 18:43 53.53313 -5.74517 16550 ft 254 kts 86°
2026-05-04 18:44 53.53365 -5.71573 17003 ft 255 kts 86°
2026-05-04 18:44 53.53399 -5.69595 17302 ft 254 kts 86°
2026-05-04 18:44 53.53467 -5.65590 17786 ft 259 kts 86°
2026-05-04 18:44 53.53519 -5.62527 18154 ft 261 kts 86°
2026-05-04 18:45 53.53569 -5.59475 18526 ft 263 kts 86°
2026-05-04 18:45 53.53618 -5.56418 18900 ft 264 kts 86°
2026-05-04 18:45 53.53667 -5.53343 19273 ft 264 kts 86°
2026-05-04 18:45 53.53716 -5.50223 19643 ft 265 kts 86°
2026-05-04 18:46 53.53712 -5.47137 20001 ft 265 kts 90°
2026-05-04 18:46 53.53629 -5.44049 20343 ft 265 kts 91°
2026-05-04 18:46 53.53541 -5.40927 20588 ft 269 kts 91°
2026-05-04 18:46 53.53455 -5.37791 20843 ft 271 kts 91°
2026-05-04 18:47 53.53371 -5.34635 21107 ft 272 kts 91°
2026-05-04 18:47 53.53286 -5.31435 21377 ft 273 kts 91°
2026-05-04 18:47 53.53202 -5.28249 21644 ft 273 kts 91°
2026-05-04 18:47 53.53118 -5.25072 21907 ft 274 kts 91°
2026-05-04 18:48 53.53033 -5.21841 22168 ft 274 kts 91°
2026-05-04 18:48 53.52949 -5.18657 22419 ft 273 kts 91°
2026-05-04 18:48 53.52864 -5.15473 22653 ft 274 kts 91°
2026-05-04 18:48 53.52770 -5.12269 22856 ft 275 kts 92°
2026-05-04 18:49 53.52668 -5.09055 23019 ft 278 kts 92°
2026-05-04 18:49 53.52564 -5.05768 23068 ft 285 kts 92°
2026-05-04 18:49 53.52455 -5.02367 23080 ft 294 kts 92°
2026-05-04 18:49 53.52342 -4.98850 23082 ft 303 kts 92°
2026-05-04 18:50 53.52226 -4.95280 23082 ft 311 kts 92°
2026-05-04 18:50 53.52105 -4.91623 23081 ft 318 kts 92°
2026-05-04 18:50 53.51981 -4.87871 23080 ft 324 kts 92°
2026-05-04 18:50 53.51855 -4.84079 23079 ft 329 kts 92°
2026-05-04 18:51 53.51727 -4.80216 23078 ft 334 kts 92°
2026-05-04 18:51 53.51597 -4.76299 23077 ft 338 kts 92°
2026-05-04 18:51 53.51463 -4.72323 23077 ft 341 kts 92°
2026-05-04 18:51 53.51328 -4.68348 23076 ft 344 kts 92°
2026-05-04 18:52 53.51191 -4.64347 23076 ft 346 kts 92°
2026-05-04 18:52 53.51050 -4.60287 23075 ft 347 kts 92°
2026-05-04 18:52 53.50909 -4.56255 23075 ft 349 kts 92°
2026-05-04 18:52 53.50764 -4.52155 23074 ft 349 kts 92°
2026-05-04 18:53 53.50619 -4.48083 23074 ft 349 kts 92°
2026-05-04 18:53 53.50473 -4.44034 23074 ft 349 kts 92°
2026-05-04 18:53 53.50326 -4.39963 23074 ft 349 kts 92°
2026-05-04 18:53 53.50177 -4.35905 23074 ft 349 kts 92°
2026-05-04 18:54 53.50026 -4.31809 23074 ft 349 kts 93°
2026-05-04 18:54 53.49874 -4.27761 23074 ft 349 kts 93°
2026-05-04 18:54 53.49721 -4.23695 23074 ft 349 kts 93°
2026-05-04 18:54 53.49565 -4.19589 23074 ft 350 kts 93°
2026-05-04 18:55 53.49410 -4.15539 23074 ft 350 kts 93°
2026-05-04 18:55 53.49092 -4.07387 23074 ft 350 kts 93°
2026-05-04 18:55 53.48933 -4.03348 23074 ft 350 kts 93°
2026-05-04 18:56 53.48771 -3.99264 23074 ft 350 kts 93°
2026-05-04 18:56 53.48470 -3.95206 23061 ft 350 kts 103°
2026-05-04 18:56 53.47729 -3.91316 23073 ft 350 kts 109°
2026-05-04 18:56 53.46919 -3.87444 23075 ft 351 kts 109°
2026-05-04 18:57 53.46114 -3.83609 23075 ft 351 kts 109°
2026-05-04 18:57 53.45307 -3.79759 23075 ft 351 kts 109°
2026-05-04 18:57 53.44492 -3.75865 23074 ft 351 kts 109°
2026-05-04 18:57 53.43682 -3.71996 23074 ft 351 kts 109°
2026-05-04 18:58 53.42881 -3.68167 23073 ft 351 kts 109°
2026-05-04 18:58 53.42068 -3.64284 23072 ft 351 kts 109°
2026-05-04 18:58 53.41102 -3.60505 23045 ft 352 kts 121°
2026-05-04 18:58 53.39593 -3.57334 23074 ft 351 kts 130°
2026-05-04 18:59 53.37969 -3.54252 23070 ft 352 kts 131°
2026-05-04 18:59 53.36364 -3.51219 23066 ft 352 kts 131°
2026-05-04 18:59 53.34729 -3.48127 23062 ft 352 kts 131°
2026-05-04 18:59 53.33115 -3.45073 23058 ft 352 kts 131°
2026-05-04 19:00 53.31484 -3.41986 23055 ft 353 kts 131°
2026-05-04 19:00 53.29863 -3.38919 23052 ft 353 kts 131°
2026-05-04 19:00 53.28231 -3.35830 23049 ft 353 kts 131°
2026-05-04 19:00 53.26622 -3.32790 23046 ft 352 kts 131°
2026-05-04 19:01 53.24990 -3.29706 23047 ft 352 kts 131°
2026-05-04 19:01 53.23377 -3.26661 23047 ft 352 kts 131°
2026-05-04 19:01 53.21756 -3.23604 23047 ft 352 kts 131°
2026-05-04 19:01 53.20122 -3.20524 23047 ft 352 kts 131°
2026-05-04 19:02 53.18495 -3.17463 23048 ft 352 kts 131°
2026-05-04 19:02 53.16885 -3.14436 23047 ft 352 kts 132°
2026-05-04 19:02 53.15243 -3.11353 23047 ft 352 kts 132°
2026-05-04 19:02 53.13620 -3.08310 23046 ft 352 kts 132°
2026-05-04 19:03 53.11988 -3.05252 23046 ft 352 kts 132°
2026-05-04 19:03 53.10359 -3.02205 23047 ft 352 kts 132°
2026-05-04 19:03 53.08724 -2.99150 23047 ft 352 kts 132°
2026-05-04 19:03 53.07120 -2.96155 23047 ft 351 kts 132°
2026-05-04 19:04 53.05481 -2.93099 23047 ft 351 kts 132°
2026-05-04 19:04 53.03862 -2.90087 23047 ft 351 kts 132°
2026-05-04 19:04 53.02235 -2.87060 23046 ft 351 kts 132°
2026-05-04 19:04 53.00612 -2.84046 23047 ft 351 kts 132°
2026-05-04 19:05 52.98978 -2.81015 23047 ft 351 kts 132°
2026-05-04 19:05 52.97344 -2.77988 23048 ft 351 kts 132°
2026-05-04 19:05 52.95732 -2.75006 23047 ft 351 kts 132°
2026-05-04 19:05 52.94088 -2.71966 23047 ft 351 kts 133°
2026-05-04 19:06 52.92470 -2.68979 23047 ft 351 kts 132°
2026-05-04 19:06 52.90843 -2.65980 23047 ft 351 kts 132°
2026-05-04 19:06 52.89217 -2.62985 23047 ft 351 kts 133°
2026-05-04 19:06 52.87582 -2.59979 23047 ft 351 kts 133°
2026-05-04 19:07 52.85945 -2.56971 23046 ft 351 kts 133°
2026-05-04 19:07 52.84319 -2.53989 23047 ft 351 kts 133°
2026-05-04 19:07 52.82696 -2.51015 23047 ft 351 kts 133°
2026-05-04 19:07 52.81052 -2.48006 23048 ft 351 kts 133°
2026-05-04 19:08 52.79424 -2.45029 23047 ft 350 kts 133°
2026-05-04 19:08 52.77797 -2.42058 23047 ft 350 kts 133°
2026-05-04 19:08 52.76156 -2.39066 23047 ft 350 kts 133°
2026-05-04 19:08 52.74509 -2.36066 23047 ft 350 kts 133°
2026-05-04 19:09 52.72887 -2.33116 23047 ft 350 kts 134°
2026-05-04 19:09 52.71242 -2.30127 23047 ft 350 kts 134°
2026-05-04 19:09 52.69601 -2.27149 23047 ft 350 kts 134°
2026-05-04 19:09 52.67967 -2.24186 23046 ft 349 kts 134°
2026-05-04 19:10 52.66333 -2.21228 23047 ft 349 kts 134°
2026-05-04 19:10 52.64696 -2.18267 23047 ft 349 kts 134°
2026-05-04 19:10 52.63068 -2.15327 23047 ft 349 kts 134°
2026-05-04 19:10 52.61422 -2.12357 23047 ft 349 kts 135°
2026-05-04 19:11 52.59803 -2.09439 23047 ft 349 kts 135°
2026-05-04 19:11 52.58154 -2.06472 23047 ft 349 kts 135°
2026-05-04 19:11 52.56525 -2.03544 23047 ft 348 kts 135°
2026-05-04 19:11 52.54889 -2.00606 23047 ft 348 kts 135°
2026-05-04 19:12 52.53256 -1.97677 23047 ft 347 kts 135°
2026-05-04 19:12 52.50006 -1.91860 23047 ft 346 kts 135°
2026-05-04 19:12 52.48373 -1.88940 23047 ft 346 kts 135°
2026-05-04 19:13 52.46755 -1.86053 23047 ft 346 kts 135°
2026-05-04 19:13 52.45105 -1.83112 23047 ft 346 kts 135°
2026-05-04 19:13 52.43481 -1.80220 23047 ft 345 kts 135°
2026-05-04 19:13 52.41852 -1.77322 23047 ft 345 kts 135°
2026-05-04 19:14 52.40243 -1.74465 23047 ft 345 kts 135°
2026-05-04 19:14 52.38599 -1.71547 23047 ft 345 kts 135°
2026-05-04 19:14 52.36969 -1.68659 23047 ft 345 kts 135°
2026-05-04 19:14 52.35342 -1.65779 23047 ft 345 kts 135°
2026-05-04 19:15 52.33691 -1.62924 23047 ft 345 kts 136°
2026-05-04 19:15 52.32054 -1.60130 23047 ft 345 kts 136°
2026-05-04 19:15 52.30396 -1.57303 23046 ft 345 kts 136°
2026-05-04 19:15 52.28733 -1.54470 23043 ft 345 kts 136°
2026-05-04 19:16 52.27076 -1.51648 23040 ft 345 kts 136°
2026-05-04 19:16 52.25429 -1.48847 23038 ft 345 kts 136°
2026-05-04 19:16 52.23769 -1.46023 23035 ft 345 kts 136°
2026-05-04 19:16 52.22109 -1.43203 23032 ft 345 kts 136°
2026-05-04 19:17 52.20430 -1.40354 23029 ft 345 kts 136°
2026-05-04 19:17 52.18788 -1.37569 23027 ft 345 kts 136°
2026-05-04 19:17 52.17115 -1.34736 23024 ft 345 kts 137°
2026-05-04 19:17 52.15444 -1.31909 23021 ft 345 kts 137°
2026-05-04 19:18 52.13777 -1.29092 23020 ft 345 kts 137°
2026-05-04 19:18 52.12124 -1.26302 23020 ft 345 kts 137°
2026-05-04 19:18 52.10448 -1.23475 23020 ft 345 kts 137°
2026-05-04 19:18 52.08787 -1.20677 23020 ft 345 kts 137°
2026-05-04 19:19 52.07113 -1.17860 23020 ft 345 kts 137°
2026-05-04 19:19 52.05462 -1.15087 23019 ft 345 kts 137°
2026-05-04 19:19 52.03786 -1.12273 23020 ft 345 kts 136°
2026-05-04 19:19 52.02114 -1.09471 23020 ft 345 kts 137°
2026-05-04 19:20 52.00439 -1.06673 23019 ft 345 kts 137°
2026-05-04 19:20 51.98768 -1.03887 23022 ft 345 kts 137°
2026-05-04 19:20 51.97081 -1.01070 23021 ft 344 kts 137°
2026-05-04 19:20 51.95418 -0.98295 23020 ft 344 kts 137°
2026-05-04 19:21 51.93756 -0.95524 23020 ft 343 kts 137°
2026-05-04 19:21 51.92094 -0.92753 23017 ft 343 kts 137°
2026-05-04 19:21 51.90425 -0.89975 23018 ft 343 kts 137°
2026-05-04 19:21 51.88752 -0.87195 23021 ft 343 kts 137°
2026-05-04 19:22 51.87114 -0.84379 23011 ft 345 kts 133°
2026-05-04 19:22 51.85859 -0.81081 23035 ft 347 kts 121°
2026-05-04 19:22 51.84772 -0.77589 23026 ft 348 kts 120°
2026-05-04 19:22 51.83694 -0.74093 23023 ft 348 kts 120°
2026-05-04 19:23 51.82615 -0.70590 23020 ft 348 kts 120°
2026-05-04 19:23 51.81536 -0.67089 23020 ft 348 kts 120°
2026-05-04 19:23 51.80451 -0.63572 23020 ft 348 kts 120°
2026-05-04 19:23 51.79378 -0.60102 23018 ft 348 kts 120°
2026-05-04 19:24 51.78292 -0.56593 23018 ft 348 kts 120°
2026-05-04 19:24 51.77207 -0.53093 23020 ft 348 kts 120°
2026-05-04 19:24 51.76124 -0.49604 23019 ft 348 kts 120°
2026-05-04 19:24 51.75035 -0.46098 23020 ft 347 kts 120°
2026-05-04 19:25 51.73946 -0.42601 23020 ft 347 kts 120°
2026-05-04 19:25 51.72870 -0.39149 23020 ft 347 kts 120°
2026-05-04 19:25 51.71774 -0.35637 23017 ft 346 kts 120°
2026-05-04 19:25 51.70701 -0.32205 23020 ft 346 kts 120°
2026-05-04 19:26 51.69605 -0.28706 23019 ft 346 kts 120°
2026-05-04 19:26 51.68519 -0.25242 23018 ft 345 kts 120°
2026-05-04 19:26 51.67438 -0.21798 23019 ft 345 kts 120°
2026-05-04 19:26 51.66360 -0.18369 23020 ft 345 kts 120°
2026-05-04 19:27 51.65271 -0.14909 23018 ft 345 kts 120°
2026-05-04 19:27 51.64189 -0.11476 23021 ft 344 kts 120°
2026-05-04 19:27 51.63097 -0.08019 23019 ft 344 kts 120°
2026-05-04 19:27 51.62012 -0.04588 23021 ft 344 kts 120°
2026-05-04 19:28 51.60931 -0.01172 23021 ft 344 kts 120°
2026-05-04 19:28 51.59839 0.02270 23014 ft 344 kts 120°
2026-05-04 19:28 51.58741 0.05730 23015 ft 346 kts 120°
2026-05-04 19:28 51.57642 0.09184 23022 ft 348 kts 120°
2026-05-04 19:29 51.56544 0.12633 23022 ft 350 kts 120°
2026-05-04 19:29 51.55421 0.16152 23024 ft 351 kts 120°
2026-05-04 19:29 51.54308 0.19637 23021 ft 352 kts 120°
2026-05-04 19:29 51.53172 0.23190 23019 ft 353 kts 120°
2026-05-04 19:30 51.52063 0.26655 23021 ft 354 kts 120°
2026-05-04 19:30 51.50932 0.30180 23022 ft 354 kts 120°
2026-05-04 19:30 51.49797 0.33717 23021 ft 355 kts 120°
2026-05-04 19:30 51.48659 0.37253 23021 ft 355 kts 120°
2026-05-04 19:31 51.47530 0.40761 23020 ft 355 kts 120°
2026-05-04 19:31 51.46397 0.44271 23019 ft 356 kts 120°
2026-05-04 19:31 51.45250 0.47822 23019 ft 356 kts 120°
2026-05-04 19:31 51.44106 0.51362 23019 ft 356 kts 120°
2026-05-04 19:32 51.42961 0.54897 23021 ft 356 kts 120°
2026-05-04 19:32 51.41826 0.58397 23024 ft 356 kts 120°
2026-05-04 19:32 51.40683 0.61914 23021 ft 356 kts 120°
2026-05-04 19:32 51.39536 0.65441 23020 ft 356 kts 120°
2026-05-04 19:33 51.38385 0.68974 23021 ft 356 kts 120°
2026-05-04 19:33 51.37241 0.72482 23023 ft 355 kts 120°
2026-05-04 19:33 51.36090 0.76008 23021 ft 355 kts 120°
2026-05-04 19:33 51.34946 0.79503 23020 ft 356 kts 120°
2026-05-04 19:34 51.33799 0.83005 23021 ft 355 kts 120°
2026-05-04 19:34 51.32658 0.86484 23021 ft 355 kts 120°
2026-05-04 19:34 51.31500 0.90010 23019 ft 355 kts 120°
2026-05-04 19:34 51.30350 0.93504 23018 ft 355 kts 120°
2026-05-04 19:35 51.29190 0.97025 23019 ft 355 kts 120°
2026-05-04 19:35 51.28043 1.00503 23018 ft 355 kts 120°
2026-05-04 19:35 51.26892 1.03985 23020 ft 355 kts 120°
2026-05-04 19:35 51.25745 1.07451 23019 ft 355 kts 120°
2026-05-04 19:36 51.24590 1.10936 23022 ft 355 kts 120°
2026-05-04 19:36 51.23421 1.14458 23020 ft 355 kts 120°
2026-05-04 19:36 51.22276 1.17903 23019 ft 355 kts 120°
2026-05-04 19:36 51.21115 1.21395 23020 ft 356 kts 120°
2026-05-04 19:37 51.19947 1.24902 23020 ft 356 kts 120°
2026-05-04 19:37 51.18790 1.28369 23021 ft 356 kts 120°
2026-05-04 19:37 51.17630 1.31841 23020 ft 356 kts 120°
2026-05-04 19:37 51.16526 1.35362 23008 ft 357 kts 114°
2026-05-04 19:38 51.16052 1.39238 23048 ft 358 kts 96°
2026-05-04 19:38 51.15862 1.43256 23029 ft 359 kts 95°
2026-05-04 19:38 51.15682 1.47231 23022 ft 360 kts 95°
2026-05-04 19:38 51.15502 1.51200 23021 ft 360 kts 95°
2026-05-04 19:39 51.15318 1.55155 23020 ft 360 kts 95°
2026-05-04 19:39 51.15128 1.59164 23018 ft 360 kts 95°
2026-05-04 19:39 51.14936 1.63150 23020 ft 360 kts 95°
2026-05-04 19:39 51.14742 1.67146 23018 ft 361 kts 96°
2026-05-04 19:40 51.14544 1.71168 23019 ft 360 kts 96°
2026-05-04 19:40 51.14347 1.75131 23019 ft 360 kts 96°
2026-05-04 19:40 51.14148 1.79112 23020 ft 360 kts 96°
2026-05-04 19:40 51.13946 1.83097 23020 ft 360 kts 96°
2026-05-04 19:41 51.13744 1.87055 23020 ft 360 kts 96°
2026-05-04 19:41 51.13540 1.91027 23020 ft 360 kts 96°
2026-05-04 19:41 51.13335 1.94975 23019 ft 360 kts 96°
2026-05-04 19:41 51.13129 1.98942 23015 ft 360 kts 96°
2026-05-04 19:42 51.12918 2.02954 23010 ft 360 kts 96°
2026-05-04 19:42 51.12709 2.06897 23006 ft 361 kts 96°
2026-05-04 19:42 51.12495 2.10924 23002 ft 361 kts 96°
2026-05-04 19:42 51.12284 2.14866 22997 ft 361 kts 96°
2026-05-04 19:43 51.12067 2.18878 22994 ft 360 kts 96°
2026-05-04 19:43 51.11852 2.22846 22993 ft 361 kts 96°
2026-05-04 19:43 51.11634 2.26844 22993 ft 360 kts 96°
2026-05-04 19:43 51.11414 2.30841 22993 ft 360 kts 96°
2026-05-04 19:44 51.11196 2.34781 22993 ft 360 kts 96°
2026-05-04 19:44 51.10975 2.38755 22993 ft 360 kts 96°
2026-05-04 19:44 51.10752 2.42734 22993 ft 360 kts 96°
2026-05-04 19:44 51.10528 2.46708 22993 ft 360 kts 96°
2026-05-04 19:45 51.10304 2.50657 22993 ft 361 kts 96°
2026-05-04 19:45 51.10078 2.54617 22993 ft 361 kts 96°
2026-05-04 19:45 51.09851 2.58574 22993 ft 361 kts 96°
2026-05-04 19:45 51.09621 2.62574 22993 ft 361 kts 96°
2026-05-04 19:46 51.09263 2.66511 22987 ft 359 kts 104°
2026-05-04 19:46 51.08598 2.70350 22991 ft 359 kts 108°
2026-05-04 19:46 51.07902 2.74139 22992 ft 359 kts 108°
2026-05-04 19:46 51.07208 2.77912 22993 ft 359 kts 108°
2026-05-04 19:47 51.06507 2.81730 22993 ft 359 kts 108°
2026-05-04 19:47 51.05800 2.85582 22993 ft 359 kts 108°
2026-05-04 19:47 51.05105 2.89370 22993 ft 358 kts 108°
2026-05-04 19:47 51.04407 2.93175 22993 ft 358 kts 108°
2026-05-04 19:48 51.03711 2.96969 22993 ft 358 kts 108°
2026-05-04 19:48 51.03016 3.00752 22992 ft 358 kts 108°
2026-05-04 19:48 51.02309 3.04593 22991 ft 358 kts 108°
2026-05-04 19:48 51.01607 3.08406 22990 ft 358 kts 108°
2026-05-04 19:49 51.00905 3.12207 22989 ft 358 kts 108°
2026-05-04 19:49 51.00201 3.16015 22987 ft 358 kts 108°
2026-05-04 19:49 50.99507 3.19760 22986 ft 358 kts 108°
2026-05-04 19:49 50.98799 3.23578 22985 ft 358 kts 108°
2026-05-04 19:50 50.98094 3.27368 22984 ft 358 kts 108°
2026-05-04 19:50 50.97389 3.31151 22983 ft 358 kts 108°
2026-05-04 19:50 50.96685 3.34920 22981 ft 358 kts 108°
2026-05-04 19:50 50.95977 3.38707 22980 ft 358 kts 108°
2026-05-04 19:51 50.95261 3.42528 22979 ft 358 kts 108°
2026-05-04 19:51 50.94552 3.46305 22978 ft 358 kts 108°
2026-05-04 19:51 50.93842 3.50077 22977 ft 358 kts 108°
2026-05-04 19:51 50.93133 3.53834 22976 ft 358 kts 108°
2026-05-04 19:52 50.92423 3.57597 22975 ft 358 kts 108°
2026-05-04 19:52 50.91701 3.61408 22973 ft 358 kts 108°
2026-05-04 19:52 50.90989 3.65159 22972 ft 358 kts 109°
2026-05-04 19:52 50.90269 3.68914 22970 ft 357 kts 109°
2026-05-04 19:53 50.89540 3.72696 22969 ft 357 kts 109°
2026-05-04 19:53 50.88807 3.76496 22968 ft 357 kts 109°
2026-05-04 19:53 50.88086 3.80221 22967 ft 357 kts 109°
2026-05-04 19:53 50.87359 3.83975 22966 ft 357 kts 109°
2026-05-04 19:54 50.86632 3.87721 22966 ft 357 kts 109°
2026-05-04 19:54 50.85895 3.91512 22966 ft 357 kts 109°
2026-05-04 19:54 50.85163 3.95272 22966 ft 357 kts 109°
2026-05-04 19:54 50.84433 3.99014 22966 ft 357 kts 109°
2026-05-04 19:55 50.83702 4.02752 22966 ft 357 kts 109°
2026-05-04 19:55 50.82967 4.06500 22966 ft 357 kts 109°
2026-05-04 19:55 50.82231 4.10252 22966 ft 357 kts 109°
2026-05-04 19:55 50.81491 4.14011 22966 ft 357 kts 109°
2026-05-04 19:56 50.80747 4.17794 22966 ft 357 kts 109°
2026-05-04 19:56 50.80007 4.21538 22966 ft 357 kts 109°
2026-05-04 19:56 50.79268 4.25278 22966 ft 356 kts 109°
2026-05-04 19:56 50.78520 4.29048 22965 ft 356 kts 109°
2026-05-04 19:57 50.77780 4.32777 22966 ft 357 kts 109°
2026-05-04 19:57 50.77037 4.36510 22966 ft 357 kts 109°
2026-05-04 19:57 50.76290 4.40256 22966 ft 357 kts 109°
2026-05-04 19:57 50.75544 4.43989 22966 ft 357 kts 109°
2026-05-04 19:58 50.74787 4.47774 22966 ft 357 kts 109°
2026-05-04 19:58 50.74034 4.51532 22965 ft 357 kts 109°
2026-05-04 19:58 50.73290 4.55234 22966 ft 357 kts 109°
2026-05-04 19:58 50.72536 4.58981 22966 ft 357 kts 109°
2026-05-04 19:59 50.71788 4.62728 22966 ft 357 kts 109°
2026-05-04 19:59 50.71060 4.66498 22965 ft 357 kts 109°
2026-05-04 19:59 50.70345 4.70212 22966 ft 357 kts 109°
2026-05-04 19:59 50.69616 4.73980 22966 ft 357 kts 109°
2026-05-04 20:00 50.68889 4.77731 22966 ft 357 kts 109°
2026-05-04 20:00 50.68168 4.81441 22966 ft 357 kts 109°
2026-05-04 20:00 50.67441 4.85171 22965 ft 357 kts 109°
2026-05-04 20:00 50.66705 4.88911 22964 ft 357 kts 110°
2026-05-04 20:01 50.65570 4.92352 22954 ft 350 kts 131°
2026-05-04 20:01 50.63877 4.95132 22961 ft 348 kts 138°
2026-05-04 20:01 50.62170 4.97778 22966 ft 349 kts 138°
2026-05-04 20:01 50.60420 5.00478 22850 ft 353 kts 138°
2026-05-04 20:02 50.58658 5.03195 22699 ft 351 kts 138°
2026-05-04 20:02 50.56936 5.05854 22550 ft 350 kts 138°
2026-05-04 20:02 50.55203 5.08529 22398 ft 348 kts 137°
2026-05-04 20:02 50.53469 5.11205 22227 ft 347 kts 138°
2026-05-04 20:03 50.51762 5.13833 21879 ft 348 kts 138°
2026-05-04 20:03 50.50034 5.16495 21494 ft 347 kts 138°
2026-05-04 20:03 50.48316 5.19141 21106 ft 345 kts 138°
2026-05-04 20:03 50.46600 5.21781 20718 ft 344 kts 137°
2026-05-04 20:04 50.44892 5.24405 20331 ft 342 kts 137°
2026-05-04 20:04 50.43201 5.27001 19948 ft 341 kts 137°
2026-05-04 20:04 50.41506 5.29599 19564 ft 340 kts 137°
2026-05-04 20:04 50.39816 5.32187 19181 ft 339 kts 137°
2026-05-04 20:05 50.38126 5.34771 18798 ft 338 kts 137°
2026-05-04 20:05 50.36444 5.37342 18417 ft 337 kts 137°
2026-05-04 20:05 50.34790 5.39866 18043 ft 335 kts 138°
2026-05-04 20:05 50.33113 5.42424 17663 ft 334 kts 137°
2026-05-04 20:06 50.31447 5.44961 17286 ft 333 kts 138°
2026-05-04 20:06 50.29797 5.47472 16913 ft 332 kts 138°
2026-05-04 20:06 50.28149 5.49978 16541 ft 331 kts 138°
2026-05-04 20:06 50.26516 5.52458 16172 ft 329 kts 138°
2026-05-04 20:07 50.24879 5.54941 15802 ft 328 kts 138°
2026-05-04 20:07 50.23238 5.57428 15431 ft 326 kts 138°
2026-05-04 20:07 50.21619 5.59879 15066 ft 324 kts 138°
2026-05-04 20:07 50.19988 5.62346 14698 ft 323 kts 138°
2026-05-04 20:08 50.18378 5.64779 14335 ft 321 kts 139°
2026-05-04 20:08 50.16774 5.67201 13971 ft 319 kts 139°
2026-05-04 20:08 50.15195 5.69583 13616 ft 316 kts 139°
2026-05-04 20:08 50.13625 5.71949 13262 ft 313 kts 139°
2026-05-04 20:09 50.12063 5.74300 12910 ft 311 kts 139°
2026-05-04 20:09 50.10520 5.76620 12563 ft 309 kts 140°
2026-05-04 20:09 50.08978 5.78936 12216 ft 306 kts 140°
2026-05-04 20:09 50.07455 5.81222 11878 ft 303 kts 140°
2026-05-04 20:10 50.05938 5.83498 11584 ft 300 kts 140°
2026-05-04 20:10 50.04459 5.85717 11296 ft 297 kts 140°
2026-05-04 20:10 50.02982 5.87933 11000 ft 286 kts 140°
2026-05-04 20:10 50.01586 5.90029 10725 ft 274 kts 140°
2026-05-04 20:11 50.00222 5.92072 10467 ft 271 kts 141°
2026-05-04 20:11 49.98879 5.94076 10205 ft 270 kts 141°
2026-05-04 20:11 49.97510 5.96112 9940 ft 268 kts 141°
2026-05-04 20:11 49.96175 5.98100 9678 ft 266 kts 141°
2026-05-04 20:12 49.94826 6.00107 9413 ft 265 kts 141°
2026-05-04 20:12 49.93507 6.02069 9157 ft 263 kts 141°
2026-05-04 20:12 49.92173 6.04053 8895 ft 262 kts 141°
2026-05-04 20:12 49.90870 6.05990 8661 ft 260 kts 141°
2026-05-04 20:13 49.89565 6.07927 8417 ft 258 kts 141°
2026-05-04 20:13 49.88259 6.09863 8163 ft 257 kts 141°
2026-05-04 20:13 49.86959 6.11790 7910 ft 256 kts 141°
2026-05-04 20:13 49.85844 6.13916 7644 ft 260 kts 124°
2026-05-04 20:14 49.85082 6.16491 7392 ft 260 kts 118°
2026-05-04 20:14 49.84380 6.19021 7141 ft 258 kts 118°
2026-05-04 20:14 49.83673 6.21573 6888 ft 256 kts 118°
2026-05-04 20:14 49.82963 6.24125 6635 ft 254 kts 118°
2026-05-04 20:15 49.82273 6.26587 6388 ft 252 kts 118°
2026-05-04 20:15 49.81572 6.29076 6140 ft 250 kts 118°
2026-05-04 20:15 49.80871 6.31559 5891 ft 249 kts 118°
2026-05-04 20:15 49.80191 6.33960 5643 ft 242 kts 118°
2026-05-04 20:16 49.79532 6.36296 5410 ft 233 kts 117°
2026-05-04 20:16 49.78815 6.38491 5145 ft 225 kts 131°
2026-05-04 20:16 49.77615 6.39957 4896 ft 216 kts 152°
2026-05-04 20:16 49.76328 6.41089 4647 ft 210 kts 152°
2026-05-04 20:17 49.75083 6.42166 4389 ft 204 kts 155°
2026-05-04 20:17 49.73735 6.42599 4142 ft 194 kts 187°
2026-05-04 20:17 49.72497 6.41911 4071 ft 191 kts 204°
2026-05-04 20:17 49.71279 6.41094 3885 ft 190 kts 202°
2026-05-04 20:18 49.70081 6.40283 3630 ft 186 kts 203°
2026-05-04 20:18 49.69110 6.39032 3344 ft 184 kts 240°
2026-05-04 20:18 49.68642 6.37242 3178 ft 178 kts 241°
2026-05-04 20:18 49.67992 6.35613 2963 ft 179 kts 235°
2026-05-04 20:19 49.67393 6.34009 2726 ft 166 kts 239°
2026-05-04 20:19 49.66849 6.32494 2576 ft 156 kts 237°
2026-05-04 20:19 49.66319 6.31073 2321 ft 148 kts 238°
2026-05-04 20:19 49.65826 6.29742 2113 ft 138 kts 238°
2026-05-04 20:20 49.65354 6.28468 1936 ft 133 kts 237°
2026-05-04 20:20 49.64899 6.27239 1777 ft 131 kts 238°
2026-05-04 20:20 49.64451 6.26024 1601 ft 132 kts 238°
2026-05-04 20:20 49.64001 6.24796 1435 ft 131 kts 238°
2026-05-04 20:21 49.63543 6.23570 1255 ft 132 kts 237°
2026-05-04 20:21 49.63099 6.22382 1206 ft 115 kts 240°
2026-05-04 20:21 49.62683 6.21223 1227 ft 32 kts 251°
2026-05-04 20:22 49.62649 6.20960 1231 ft 18 kts 266°
2026-05-04 20:22 49.62647 6.20821 1233 ft 10 kts 270°
2026-05-04 20:22 49.62682 6.20746 1234 ft 7 kts 336°
2026-05-04 20:22 49.62737 6.20737 1235 ft 8 kts 13°
2026-05-04 20:23 49.62796 6.20775 1236 ft 9 kts 35°
2026-05-04 20:23 49.62836 6.20869 1237 ft 11 kts 64°
2026-05-04 20:23 49.62873 6.20993 1237 ft 13 kts 64°
2026-05-04 20:23 49.62921 6.21144 1236 ft 16 kts 64°
2026-05-04 20:24 49.62974 6.21319 1236 ft 18 kts 63°
2026-05-04 20:24 49.63034 6.21513 1229 ft 19 kts 64°
2026-05-04 20:24 49.63096 6.21638 1229 ft 10 kts 360°
2026-05-04 20:24 49.63152 6.21597 1233 ft 8 kts 329°
2026-05-04 20:25 49.63200 6.21555 1235 ft 7 kts 330°
2026-05-04 20:25 49.63241 6.21507 1237 ft 4 kts 271°
2026-05-04 20:25 49.63226 6.21461 1238 ft 3 kts 240°
2026-05-04 20:25 49.63224 6.21454 1238 ft 0 kts 240°